Willmar, MN

12:48 AM CDT on March 27, 2017 (GMT -0500)
Willmar

Weather History for KBDH - February, 2014

Change the Weather History Date:

Friday, February 21, 2014

  Actual Average (KBBB) Record (KBBB)
Temperature  
Mean Temperature 10 °F -  
Max Temperature 17 °F 31 °F 60 °F (2017)
Min Temperature 3 °F 12 °F -25 °F (2001)
Degree Days  
Heating Degree Days 55    
Moisture  
Dew Point 5 °F    
Average Humidity 75    
Maximum Humidity 85    
Minimum Humidity 68    
Precipitation  
Precipitation 0.00 in - - ()
Sea Level Pressure  
Sea Level Pressure 29.63 in    
Wind  
Wind Speed 25 mph (WNW)    
Max Wind Speed 37 mph    
Max Gust Speed 47 mph    
Visibility 7 miles    
Events Snow    
Averages and records for this station are not official NWS values.
T = Trace of Precipitation, MM = Missing Value Source: NWS Daily Summary

Daily Weather History Graph

Daily Weather History Graph

Search for Another Location

Airport or City:

Trip Planner

Search our weather history database for the weather conditions in past years. The results will help you decide how hot, cold, wet, or windy it might be!

Date:

Astronomy

Feb. 21, 2014 Rise Set
Actual Time 7:12 AM CST 5:56 PM CST
Civil Twilight 6:42 AM CST 6:26 PM CST
Nautical Twilight 6:07 AM CST 7:01 PM CST
Astronomical Twilight 5:33 AM CST 7:35 PM CST
Moon 12:08 AM CST (2/21) 10:18 AM CST (2/21)
Length of Visible Light 11h 44m
Length of Day
10h 44m
Waning Gibbous, 60% of the Moon is Illuminated
Feb 21
Waning Gibbous
Feb 22
Last Quarter
Mar 1
New
Mar 8
First Quarter
Mar 16
Full

Hourly Weather History & Observations

Time (CST) Temp. Windchill Dew Point Humidity Pressure Visibility Wind Dir Wind Speed Gust Speed Precip Events Conditions
12:15 AM 12.2 °F -8.6 °F 6.8 °F 79% 29.49 in 1.5 mi NW 27.6 mph 39.1 mph N/A Snow Light Snow
12:36 AM 12.2 °F -9.3 °F 6.8 °F 79% 29.49 in 1.8 mi NW 29.9 mph 41.4 mph N/A Snow Light Snow
12:55 AM 10.4 °F -13.5 °F 6.8 °F 85% 29.48 in 2.0 mi NW 36.8 mph 41.4 mph N/A Snow Light Snow
1:15 AM 10.4 °F -13.2 °F 6.8 °F 85% 29.48 in 1.5 mi NW 35.7 mph 41.4 mph N/A   Haze
1:36 AM 10.4 °F -13.2 °F 5.0 °F 79% 29.48 in 1.8 mi NW 35.7 mph 42.6 mph N/A Snow Light Snow
1:55 AM 10.4 °F -12.0 °F 5.0 °F 79% 29.49 in 1.2 mi NW 31.1 mph 39.1 mph N/A Snow Light Snow
2:15 AM 8.6 °F -14.8 °F 5.0 °F 85% 29.49 in 1.0 mi NW 32.2 mph 40.3 mph N/A Snow Light Snow
2:36 AM 8.6 °F -15.4 °F 3.2 °F 79% 29.49 in 1.2 mi NW 34.5 mph 47.2 mph N/A Snow Light Snow
2:55 AM 8.6 °F -14.8 °F 3.2 °F 79% 29.49 in 1.5 mi NW 32.2 mph 42.6 mph N/A   Haze
3:15 AM 8.6 °F -15.1 °F 3.2 °F 79% 29.49 in 2.0 mi NW 33.4 mph 42.6 mph N/A   Haze
3:36 AM 8.6 °F -13.4 °F 3.2 °F 79% 29.50 in 2.5 mi NW 27.6 mph - N/A   Haze
3:55 AM 6.8 °F -15.5 °F 1.4 °F 79% 29.51 in 2.5 mi WNW 26.5 mph 36.8 mph N/A   Haze
4:15 AM 6.8 °F -15.5 °F 1.4 °F 79% 29.52 in 1.8 mi WNW 26.5 mph 34.5 mph N/A   Haze
4:36 AM 6.8 °F -15.9 °F 1.4 °F 79% 29.53 in 2.0 mi NW 27.6 mph 38.0 mph N/A   Haze
4:55 AM 6.8 °F -15.5 °F -0.4 °F 72% 29.53 in 2.5 mi WNW 26.5 mph 38.0 mph N/A   Haze
5:16 AM 5.0 °F -17.1 °F -0.4 °F 78% 29.54 in 2.5 mi NW 24.2 mph 34.5 mph N/A   Haze
5:36 AM 5.0 °F -17.5 °F -0.4 °F 78% 29.54 in 4.0 mi WNW 25.3 mph 33.4 mph N/A   Haze
5:55 AM 5.0 °F -16.2 °F -0.4 °F 78% 29.55 in 5.0 mi WNW 21.9 mph 31.1 mph N/A   Haze
6:16 AM 5.0 °F -16.7 °F -2.2 °F 72% 29.56 in 7.0 mi WNW 23.0 mph 34.5 mph N/A   Overcast
6:36 AM 5.0 °F -17.1 °F -0.4 °F 78% 29.56 in 4.0 mi WNW 24.2 mph 29.9 mph N/A   Haze
6:55 AM 3.2 °F -17.6 °F -2.2 °F 78% 29.57 in 5.0 mi WNW 19.6 mph 29.9 mph N/A   Haze
7:15 AM 3.2 °F -19.9 °F -2.2 °F 78% 29.57 in 3.0 mi WNW 25.3 mph 31.1 mph N/A   Haze
7:36 AM 3.2 °F -18.6 °F -2.2 °F 78% 29.58 in 4.0 mi WNW 21.9 mph 32.2 mph N/A   Haze
7:55 AM 3.2 °F -18.6 °F -2.2 °F 78% 29.58 in 5.0 mi WNW 21.9 mph 27.6 mph N/A   Haze
8:16 AM 3.2 °F -19.0 °F -2.2 °F 78% 29.58 in 5.0 mi WNW 23.0 mph 28.8 mph N/A   Haze
8:35 AM 3.2 °F -19.0 °F -2.2 °F 78% 29.59 in 7.0 mi WNW 23.0 mph 32.2 mph N/A   Overcast
8:56 AM 3.2 °F -19.0 °F -2.2 °F 78% 29.59 in 7.0 mi WNW 23.0 mph 32.2 mph N/A   Overcast
9:15 AM 5.0 °F -16.2 °F -2.2 °F 72% 29.59 in 4.0 mi WNW 21.9 mph 28.8 mph N/A   Haze
9:35 AM 5.0 °F -17.5 °F -0.4 °F 78% 29.59 in 5.0 mi WNW 25.3 mph 32.2 mph N/A   Haze
9:55 AM 6.8 °F -14.7 °F -0.4 °F 72% 29.60 in 5.0 mi WNW 24.2 mph 32.2 mph N/A   Haze
10:15 AM 6.8 °F -15.5 °F -0.4 °F 72% 29.60 in 4.0 mi WNW 26.5 mph 33.4 mph N/A   Haze
10:35 AM 8.6 °F -11.4 °F 1.4 °F 73% 29.60 in 5.0 mi WNW 21.9 mph 29.9 mph N/A   Haze
10:55 AM 8.6 °F -11.4 °F 1.4 °F 73% 29.61 in 5.0 mi WNW 21.9 mph 25.3 mph N/A   Haze
11:15 AM 8.6 °F -12.7 °F 1.4 °F 73% 29.61 in 7.0 mi WNW 25.3 mph 31.1 mph N/A   Overcast
11:35 AM 10.4 °F -9.5 °F 3.2 °F 73% 29.62 in 7.0 mi WNW 23.0 mph 32.2 mph N/A   Overcast
11:56 AM 10.4 °F -9.1 °F 3.2 °F 73% 29.62 in 10.0 mi NW 21.9 mph - N/A   Overcast
12:15 PM 12.2 °F -7.1 °F 5.0 °F 73% 29.62 in 10.0 mi WNW 23.0 mph 27.6 mph N/A   Overcast
12:35 PM 12.2 °F -6.3 °F 6.8 °F 79% 29.62 in 10.0 mi WNW 20.7 mph 27.6 mph N/A   Overcast
12:56 PM 14.0 °F -4.7 °F 6.8 °F 73% 29.62 in 10.0 mi WNW 23.0 mph 28.8 mph N/A   Mostly Cloudy
1:15 PM 15.8 °F -3.4 °F 6.8 °F 68% 29.62 in 7.0 mi WNW 26.5 mph 32.2 mph N/A   Overcast
1:36 PM 15.8 °F -2.7 °F 8.6 °F 73% 29.63 in 10.0 mi WNW 24.2 mph 38.0 mph N/A   Overcast
1:55 PM 15.8 °F -1.9 °F 8.6 °F 73% 29.63 in 10.0 mi WNW 21.9 mph 27.6 mph N/A   Overcast
2:16 PM 15.8 °F -2.7 °F 8.6 °F 73% 29.64 in 10.0 mi NW 24.2 mph 31.1 mph N/A   Overcast
2:35 PM 17.6 °F 0.5 °F 10.4 °F 73% 29.64 in 7.0 mi WNW 21.9 mph 28.8 mph N/A   Overcast
2:55 PM 17.6 °F 0.9 °F 10.4 °F 73% 29.65 in 7.0 mi WNW 20.7 mph 27.6 mph N/A   Overcast
3:16 PM 17.6 °F -0.6 °F 10.4 °F 73% 29.66 in 10.0 mi NW 25.3 mph 31.1 mph N/A   Overcast
3:35 PM 17.6 °F 0.5 °F 10.4 °F 73% 29.67 in 10.0 mi NW 21.9 mph 29.9 mph N/A   Mostly Cloudy
3:55 PM 17.6 °F 1.3 °F 10.4 °F 73% 29.68 in 10.0 mi WNW 19.6 mph - N/A   Mostly Cloudy
4:16 PM 17.6 °F 2.2 °F 10.4 °F 73% 29.69 in 10.0 mi WNW 17.3 mph 23.0 mph N/A   Mostly Cloudy
4:35 PM 17.6 °F 2.7 °F 10.4 °F 73% 29.69 in 10.0 mi WNW 16.1 mph - N/A   Overcast
4:56 PM 17.6 °F 1.7 °F 10.4 °F 73% 29.70 in 10.0 mi WNW 18.4 mph 26.5 mph N/A   Overcast
5:15 PM 17.6 °F 2.7 °F 10.4 °F 73% 29.71 in 10.0 mi WNW 16.1 mph 20.7 mph N/A   Mostly Cloudy
5:35 PM 17.6 °F 2.7 °F 10.4 °F 73% 29.71 in 10.0 mi WNW 16.1 mph - N/A   Scattered Clouds
5:55 PM 17.6 °F 2.2 °F 10.4 °F 73% 29.72 in 10.0 mi WNW 17.3 mph - N/A   Clear
6:15 PM 15.8 °F 0.3 °F 8.6 °F 73% 29.73 in 10.0 mi WNW 16.1 mph 20.7 mph N/A   Clear
6:35 PM 15.8 °F 0.9 °F 8.6 °F 73% 29.74 in 10.0 mi WNW 15.0 mph - N/A   Clear
6:56 PM 15.8 °F 1.4 °F 8.6 °F 73% 29.75 in 10.0 mi WNW 13.8 mph - N/A   Clear
7:15 PM 15.8 °F 2.1 °F 8.6 °F 73% 29.76 in 10.0 mi WNW 12.7 mph - N/A   Clear
7:35 PM 15.8 °F 1.4 °F 8.6 °F 73% 29.76 in 10.0 mi WNW 13.8 mph - N/A   Clear
7:56 PM 15.8 °F 0.3 °F 8.6 °F 73% 29.76 in 10.0 mi WNW 16.1 mph 20.7 mph N/A   Clear
8:15 PM 15.8 °F 1.4 °F 6.8 °F 68% 29.76 in 10.0 mi WNW 13.8 mph - N/A   Clear
8:35 PM 14.0 °F -0.8 °F 6.8 °F 73% 29.77 in 10.0 mi WNW 13.8 mph - N/A   Clear
8:56 PM 14.0 °F -0.8 °F 6.8 °F 73% 29.78 in 10.0 mi West 13.8 mph - N/A   Clear
9:15 PM 12.2 °F -2.5 °F 6.8 °F 79% 29.78 in 10.0 mi West 12.7 mph - N/A   Clear
9:35 PM 10.4 °F -4.8 °F 3.2 °F 73% 29.79 in 10.0 mi West 12.7 mph - N/A   Clear
9:56 PM 10.4 °F -6.0 °F 5.0 °F 79% 29.79 in 10.0 mi West 15.0 mph - N/A   Clear
10:15 PM 12.2 °F -4.8 °F 6.8 °F 79% 29.79 in 10.0 mi WNW 17.3 mph 21.9 mph N/A   Clear
10:35 PM 12.2 °F -2.5 °F 5.0 °F 73% 29.79 in 10.0 mi WNW 12.7 mph 18.4 mph N/A   Clear
10:56 PM 10.4 °F -4.8 °F 5.0 °F 79% 29.79 in 10.0 mi WNW 12.7 mph - N/A   Clear
11:15 PM 10.4 °F -6.0 °F 3.2 °F 73% 29.80 in 10.0 mi WNW 15.0 mph - N/A   Clear
11:35 PM 10.4 °F -6.0 °F 3.2 °F 73% 29.81 in 10.0 mi WNW 15.0 mph - N/A   Clear
11:55 PM 10.4 °F -5.4 °F 3.2 °F 73% 29.81 in 10.0 mi WNW 13.8 mph - N/A   Clear